Change the Weather History Date:

Friday, January 24, 2014

  Actual Average Record
Temperature  
Mean Temperature 8 °F -  
Max Temperature 23 °F 27 °F 41 °F (1950)
Min Temperature -8 °F 10 °F -24 °F (2004)
Degree Days  
Heating Degree Days 58    
Moisture  
Dew Point 9 °F    
Average Humidity 81    
Maximum Humidity 89    
Minimum Humidity 73    
Precipitation  
Precipitation 0.22 in - - ()
Sea Level Pressure  
Sea Level Pressure 29.69 in    
Wind  
Wind Speed 9 mph (SW)    
Max Wind Speed 24 mph    
Max Gust Speed 41 mph    
Visibility 2 miles    
Events Fog , Snow    
Averages and records for this station are not official NWS values.
T = Trace of Precipitation, MM = Missing Value Source: NWS Daily Summary

Daily Weather History Graph

Daily Weather History Graph

Search for Another Location

Airport or City:

Trip Planner

Search our weather history database for the weather conditions in past years. The results will help you decide how hot, cold, wet, or windy it might be!

Date:

Astronomy

Jan. 24, 2014 Rise Set
Actual Time 8:08 AM EST 5:34 PM EST
Civil Twilight 7:36 AM EST 6:06 PM EST
Nautical Twilight 7:00 AM EST 6:42 PM EST
Astronomical Twilight 6:25 AM EST 7:17 PM EST
Moon 1:30 AM EST (1/24) 11:55 AM EST (1/24)
Length of Visible Light 10h 30m
Length of Day
9h 25m
Last Quarter, 45% of the Moon is Illuminated
Jan 24
Last Quarter
Jan 30
New
Feb 6
First Quarter
Feb 14
Full
Feb 22
Last Quarter

Hourly Weather History & Observations

Time (EST) Temp. Windchill Dew Point Humidity Pressure Visibility Wind Dir Wind Speed Gust Speed Precip Events Conditions
12:54 AM -8.0 °F - -13.0 °F 79% 30.30 in 6.0 mi Calm Calm - 0.00 in   Haze
1:54 AM -5.1 °F -13.6 °F -9.9 °F 80% 30.25 in 6.0 mi SE 3.5 mph - 0.00 in   Haze
2:15 AM -4.0 °F - -8.0 °F 83% 30.18 in 1.8 mi Calm Calm - 0.00 in Snow Light Snow
2:31 AM -0.9 °F -12.7 °F -6.0 °F 79% 30.16 in 2.0 mi SE 5.8 mph - 0.00 in Snow Light Snow
2:43 AM -0.9 °F -8.9 °F -5.1 °F 83% 30.15 in 5.0 mi SSE 3.5 mph - 0.00 in Snow Light Snow
2:54 AM -0.0 °F -9.9 °F -4.0 °F 83% 30.21 in 4.0 mi SSE 4.6 mph - 0.00 in Snow Light Snow
3:01 AM 1.0 °F -11.7 °F -2.9 °F 83% 30.14 in 4.0 mi SSE 6.9 mph - 0.00 in Snow Light Snow
3:31 AM 3.0 °F -8.0 °F -0.9 °F 84% 30.13 in 2.0 mi SSE 5.8 mph - 0.00 in Snow Light Snow
3:40 AM 3.9 °F -5.3 °F -0.0 °F 84% 30.12 in 1.5 mi South 4.6 mph - 0.00 in Snow Light Snow
3:49 AM 5.0 °F -2.1 °F 1.4 °F 85% 30.12 in 1.0 mi South 3.5 mph - 0.00 in Snow Light Snow
3:52 AM 5.0 °F -5.6 °F 1.4 °F 85% 30.11 in 0.8 mi South 5.8 mph - 0.00 in Snow Light Snow
3:54 AM 6.1 °F -2.8 °F 1.9 °F 83% 30.17 in 0.8 mi South 4.6 mph - 0.00 in Snow Light Snow
4:03 AM 7.0 °F -1.7 °F 3.0 °F 84% 30.10 in 1.2 mi South 4.6 mph - 0.01 in Snow Light Snow
4:54 AM 10.0 °F -4.5 °F 3.9 °F 76% 30.12 in 1.8 mi SSW 11.5 mph 23.0 mph 0.01 in Snow Light Snow
5:00 AM 10.0 °F -5.2 °F 3.9 °F 76% 30.06 in 2.0 mi SSW 12.7 mph 23.0 mph 0.00 in Snow Light Snow
5:18 AM 9.0 °F -7.3 °F 3.0 °F 77% 30.04 in 3.0 mi SSW 13.8 mph 25.3 mph 0.00 in Snow Light Snow
5:54 AM 9.0 °F -8.5 °F 3.0 °F 77% 30.07 in 4.0 mi SSW 16.1 mph 23.0 mph 0.00 in   Haze
6:21 AM 9.0 °F -7.9 °F 3.0 °F 77% 29.99 in 2.0 mi SW 15.0 mph 28.8 mph 0.00 in Snow Light Snow
6:29 AM 10.0 °F -8.1 °F 3.0 °F 73% 29.98 in 1.8 mi SW 18.4 mph 32.2 mph 0.00 in Snow Light Snow
6:54 AM 10.0 °F -5.9 °F 3.0 °F 73% 30.01 in 1.8 mi SW 13.8 mph 28.8 mph 0.00 in Snow Light Snow
7:14 AM 10.0 °F -7.1 °F 3.0 °F 73% 29.93 in 2.0 mi SSW 16.1 mph 31.1 mph 0.00 in   Haze
7:51 AM 10.4 °F -4.8 °F 3.2 °F 73% 29.89 in 5.0 mi SSW 12.7 mph 25.3 mph 0.00 in   Haze
7:54 AM 10.0 °F -5.9 °F 3.9 °F 76% 29.96 in 5.0 mi SSW 13.8 mph 25.3 mph 0.00 in   Haze
8:46 AM 10.0 °F -5.9 °F 3.9 °F 76% 29.83 in 2.5 mi South 13.8 mph 25.3 mph 0.00 in   Haze
8:54 AM 10.0 °F -8.6 °F 3.9 °F 76% 29.89 in 2.0 mi SSW 19.6 mph 27.6 mph 0.00 in   Haze
9:12 AM 10.0 °F -5.9 °F 3.9 °F 76% 29.79 in 1.2 mi South 13.8 mph 24.2 mph 0.00 in Snow Light Snow
9:54 AM 10.9 °F -9.2 °F 3.9 °F 73% 29.81 in 0.5 mi SSW 24.2 mph 41.4 mph 0.00 in Snow Snow
10:14 AM 10.9 °F -7.0 °F 3.9 °F 73% 29.71 in 1.0 mi South 18.4 mph 31.1 mph 0.00 in Snow Light Snow
10:31 AM 10.9 °F -7.0 °F 5.0 °F 77% 29.68 in 0.8 mi SW 18.4 mph 29.9 mph 0.00 in Snow Light Snow
10:54 AM 12.9 °F -3.4 °F 6.1 °F 74% 29.73 in 0.8 mi SSW 16.1 mph 33.4 mph 0.00 in Snow Light Snow
11:18 AM 14.0 °F -3.0 °F 8.1 °F 77% 29.65 in 0.5 mi SSW 18.4 mph 26.5 mph 0.00 in Snow Snow
11:54 AM 15.1 °F -0.1 °F 9.0 °F 77% 29.67 in 0.8 mi SSW 15.0 mph 27.6 mph 0.00 in Snow Light Snow
12:13 PM 16.0 °F -0.4 °F 10.0 °F 77% 29.59 in 0.2 mi SSW 18.4 mph 26.5 mph 0.00 in Snow Heavy Snow
12:20 PM 16.0 °F -0.4 °F 10.0 °F 77% 29.58 in 0.2 mi SSW 18.4 mph 27.6 mph 0.00 in Snow Heavy Snow
12:54 PM 17.1 °F 5.0 °F 12.9 °F 84% 29.61 in 0.2 mi SW 10.4 mph 24.2 mph 0.01 in Fog , Snow Heavy Snow
1:51 PM 19.4 °F 3.2 °F 14.0 °F 80% 29.50 in 0.2 mi WSW 20.7 mph 32.2 mph 0.01 in Snow Heavy Snow
1:54 PM 19.0 °F 5.0 °F 14.0 °F 81% 29.55 in 0.2 mi WSW 15.0 mph 31.1 mph 0.01 in Snow Heavy Snow
2:19 PM 19.0 °F 2.7 °F 12.9 °F 77% 29.48 in 0.5 mi WSW 20.7 mph 34.5 mph 0.01 in Snow Snow
2:26 PM 19.0 °F 2.7 °F 12.9 °F 77% 29.47 in 0.5 mi West 20.7 mph 40.3 mph 0.01 in Snow Snow
2:54 PM 19.0 °F 4.5 °F 12.9 °F 77% 29.52 in 0.8 mi WSW 16.1 mph 28.8 mph 0.01 in Snow Light Snow
3:21 PM 19.0 °F 5.6 °F 14.0 °F 81% 29.45 in 0.5 mi SW 13.8 mph 31.1 mph 0.00 in Snow Snow
3:51 PM 19.4 °F 4.5 °F 14.0 °F 80% 29.44 in 0.8 mi SW 17.3 mph 32.2 mph 0.00 in Snow Light Snow
3:54 PM 19.0 °F 6.1 °F 14.0 °F 81% 29.49 in 0.8 mi SW 12.7 mph 32.2 mph 0.00 in Snow Light Snow
4:17 PM 19.0 °F 5.6 °F 15.1 °F 85% 29.43 in 0.5 mi SW 13.8 mph 28.8 mph 0.00 in Fog , Snow Snow
4:49 PM 19.4 °F 5.0 °F 15.8 °F 86% 29.41 in 0.5 mi SW 16.1 mph 24.2 mph 0.01 in Fog , Snow Snow
4:54 PM 19.0 °F 6.1 °F 15.1 °F 85% 29.45 in 0.5 mi SW 12.7 mph 24.2 mph 0.01 in Fog , Snow Snow
5:03 PM 19.9 °F 4.8 °F 15.1 °F 81% 29.41 in 0.2 mi SW 18.4 mph 28.8 mph 0.00 in Snow Heavy Snow
5:39 PM 19.9 °F 6.7 °F 16.0 °F 85% 29.39 in 0.5 mi SW 13.8 mph 21.9 mph 0.00 in Fog , Snow Snow
5:54 PM 19.9 °F 8.6 °F 16.0 °F 85% 29.42 in 0.8 mi SW 10.4 mph - 0.01 in Snow Light Snow
6:30 PM 19.9 °F 7.9 °F 15.1 °F 81% 29.36 in 1.0 mi SSW 11.5 mph 18.4 mph 0.01 in Snow Light Snow
6:45 PM 19.9 °F 10.1 °F 16.0 °F 85% 29.36 in 0.8 mi SW 8.1 mph 19.6 mph 0.01 in Snow Light Snow
6:54 PM 19.9 °F 9.3 °F 16.0 °F 85% 29.40 in 0.5 mi SW 9.2 mph - 0.01 in Fog , Snow Snow
7:22 PM 19.9 °F 8.6 °F 16.0 °F 85% 29.35 in 0.2 mi SW 10.4 mph - 0.03 in Fog , Snow Heavy Snow
7:34 PM 19.9 °F 10.1 °F 17.1 °F 89% 29.35 in 0.5 mi SSW 8.1 mph - 0.04 in Fog , Snow Snow
7:54 PM 21.0 °F 7.6 °F 17.1 °F 85% 29.38 in 0.5 mi WSW 15.0 mph 21.9 mph 0.05 in Fog , Snow Snow
8:44 PM 21.9 °F 9.8 °F 18.0 °F 85% 29.31 in 1.0 mi WSW 12.7 mph 23.0 mph 0.02 in Snow Light Snow
8:51 PM 21.2 °F 8.3 °F 17.6 °F 86% 29.30 in 0.8 mi WSW 13.8 mph 23.0 mph 0.03 in Snow Light Snow
8:54 PM 21.9 °F 9.8 °F 18.0 °F 85% 29.35 in 0.8 mi WSW 12.7 mph 23.0 mph 0.03 in Snow Light Snow
9:54 PM 21.9 °F 11.0 °F 19.0 °F 89% 29.30 in 0.8 mi West 10.4 mph 21.9 mph 0.02 in Snow Light Snow
10:19 PM 23.0 °F 13.1 °F 19.0 °F 85% 29.25 in 1.0 mi West 9.2 mph 18.4 mph 0.01 in Snow Light Snow
10:49 PM 23.0 °F 11.7 °F 19.4 °F 86% 29.23 in 0.8 mi West 11.5 mph 19.6 mph 0.02 in Snow Light Snow
10:54 PM 23.0 °F 13.1 °F 19.0 °F 85% 29.27 in 0.8 mi West 9.2 mph 17.3 mph 0.02 in Snow Light Snow
11:02 PM 23.0 °F 13.1 °F 19.9 °F 88% 29.22 in 0.8 mi West 9.2 mph - 0.01 in Snow Light Snow
11:34 PM 23.0 °F 11.1 °F 19.0 °F 85% 29.21 in 1.0 mi West 12.7 mph - 0.02 in Snow Light Snow
11:54 PM 23.0 °F 13.9 °F 19.0 °F 85% 29.24 in 1.0 mi West 8.1 mph - 0.03 in Snow Light Snow